Retour au catalogue

STARLINK-5327

ActifCommunicationsVLEO
NORAD 55291·PAYLOAD·🇺🇸 United States

Lancé Jan 19, 2023 depuis Vandenberg Space Force Base

Loading…

Prochains Passages (prochaines 24 heures)

TLE

FraisSource: CelesTrak SupGP

Époque: Sep 14, 2026, 21:42 UTC

1 55291C 23010Y   26257.90465278  .00062227  00000+0  52153-2 0  2574
2 55291  69.9996 267.5098 0003113 268.9985 261.0844 14.98296172    19

Suivez STARLINK-5327 en temps réel avec AllMySat

Download on the App Store